Regional Weather Roundup
Issued by NWS Burlington, VT

Home | Current Version | Previous Version | Text Only | Print | Product List | Glossary On
Versions: 1 2 3 4 5 6 7 8 9 10 11 12 13 14 15 16 17 18 19 20 21 22 23 24 25 26 27 28 29 30 31 32 33 34 35 36 37 38 39 40 41 42 43 44 45 46 47 48 49 50
000
ASUS41 KBTV 180910
RWRBTV
VERMONT REGIONAL WEATHER ROUNDUP
NATIONAL WEATHER SERVICE BURLINGTON VT
400 AM EST SUN FEB 18 2018

NOTE: "FAIR" INDICATES FEW OR NO CLOUDS BELOW 12,000 FEET WITH NO
SIGNIFICANT WEATHER AND/OR OBSTRUCTIONS TO VISIBILITY.

* THESE REPORTS ARE NOT UNDER NWS QUALITY CONTROL AND/OR DO NOT
  REPORT WEATHER SUCH AS PRECIPITATION AND FOG.

VTZ001>019-181000-
_____VERMONT_____


CITY           SKY/WX    TMP DP  RH WIND       PRES   REMARKS
BURLINGTON     LGT SNOW  31  28  89 CALM      29.96R FOG
MONTPELIER     LGT SNOW  25  24  96 CALM      29.94R FOG
MORRISVILLE    LGT SNOW  24  24 100 CALM      29.94R FOG
ST. JOHNSBURY*   N/A     25  25 100 MISG      29.92S
LYNDONVILLE*   LGT SNOW  24  22  95 CALM      29.93R
MIDDLEBURY*    LGT SNOW  29  28  96 CALM      29.95R
RUTLAND*       LGT SNOW  27  27 100 CALM      29.93R FOG
SPRINGFIELD    LGT SNOW  27  27 100 CALM      29.94R FOG
HIGHGATE*      LGT SNOW  29  28  98 CALM      29.96R
NEWPORT*       LGT SNOW  24  22  96 CALM      29.93R
BENNINGTON     LGT SNOW  30  28  92 CALM      29.93R VSB 1

_____LAKE CHAMPLAIN_____


CITY           SKY/WX    TMP DP  RH WIND       PRES   REMARKS
BURTON ISLAND*   N/A     30  30 100 SW5         N/A  WCI  25
COLCHESTER RF*   N/A     32  30  93 SW1         N/A

$$

NYZ007-026>031-035-052-083-087-181000-
_____NORTHERN NEW YORK_____


CITY           SKY/WX    TMP DP  RH WIND       PRES   REMARKS
PLATTSBURGH    LGT SNOW  28  26  92 CALM      29.96R FOG
SARANAC LAKE   LGT SNOW  24  23  96 SW5       29.88R VSB 1   WCI  18
MASSENA        MOCLDY    26  21  81 SW5       30.00R WCI  20
OGDENSBURG*    FAIR      28  23  82 MISG      29.99R
POTSDAM*       CLOUDY    28  25  86 W7        29.99R WCI  21
WATERTOWN      MOCLDY    28  27  96 SW6       30.02R WCI  22
FT DRUM        CLOUDY    28  26  92 W9        29.99R WCI  19
ALBANY         LGT SNOW  30  27  88 SW3       29.98R FOG
GLENS FALLS    LGT SNOW  28  27  96 S3        29.96R FOG

$$
NHZ002-005-011-181000-
_____NEW HAMPSHIRE_____


CITY           SKY/WX    TMP DP  RH WIND       PRES   REMARKS
LEBANON        LGT SNOW  28  26  92 N3        29.94R FOG
KEENE          LGT SNOW  28  27  96 CALM      29.94R FOG
MT WASHINGTON  SNOW       9   9 100 W38         N/A  VSB 0   WCI -16
PLYMOUTH       LGT SNOW  26  25  98 CALM      29.94S
WHITEFIELD     LGT SNOW  25  24  96 CALM      29.90F FOG

$$

_____REGIONAL QUEBEC LOCATIONS_____


CITY           SKY/WX    TMP DP  RH WIND       PRES   REMARKS
MONTREAL       CLOUDY    23  19  86 CALM      29.97R
QUEBEC CITY    SNOWSHWR  19  18  93 NE3       29.95S
SHERBROOKE     LGT SNOW  23  23 100 E2        29.92S

_____REGIONAL ONTARIO LOCATIONS_____


CITY           SKY/WX    TMP DP  RH WIND       PRES   REMARKS
OTTAWA         FLURRIES  23  16  74 W3        29.98R

______KEY______
VSB  - VISIBILITY IN MILES
WCI  - WIND CHILL INDEX
HX   - HEAT INDEX
$$
NNNN




USA.gov is the U.S. government's official web portal to all federal, state and local government web resources and services.